TimeCDT,TemperatureF,Dew PointF,Humidity,Sea Level PressureIn,VisibilityMPH,Wind Direction,Wind SpeedMPH,Gust SpeedMPH,PrecipitationIn,Events,Conditions,WindDirDegrees,DateUTC
12:15 AM,55.6,53.1,91,29.98,10.0,ENE,3.5,-,N/A,,Clear,70,2013-09-24 05:15:00
12:35 AM,54.1,52.5,94,29.99,10.0,Calm,Calm,-,N/A,,Clear,0,2013-09-24 05:35:00
12:55 AM,54.1,52.2,93,29.98,10.0,Calm,Calm,-,N/A,,Clear,0,2013-09-24 05:55:00
1:15 AM,55.0,52.7,92,29.99,10.0,Calm,Calm,-,N/A,,Clear,0,2013-09-24 06:15:00
1:35 AM,54.5,52.3,92,29.98,10.0,Calm,Calm,-,N/A,,Clear,0,2013-09-24 06:35:00
1:55 AM,54.1,52.3,94,29.98,10.0,Calm,Calm,-,N/A,,Clear,0,2013-09-24 06:55:00
2:15 AM,52.7,51.6,96,29.98,10.0,Calm,Calm,-,N/A,,Clear,0,2013-09-24 07:15:00
2:35 AM,52.3,51.4,97,29.98,10.0,Calm,Calm,-,N/A,,Clear,0,2013-09-24 07:35:00
2:55 AM,52.2,51.4,97,29.98,10.0,Calm,Calm,-,N/A,,Clear,0,2013-09-24 07:55:00
3:15 AM,53.2,52.7,98,29.98,7.0,NE,3.5,-,N/A,,Scattered Clouds,40,2013-09-24 08:15:00
3:35 AM,53.1,52.9,99,29.98,10.0,NNE,3.5,-,N/A,,Mostly Cloudy,30,2013-09-24 08:35:00
3:55 AM,52.9,52.0,97,29.98,7.0,Calm,Calm,-,N/A,,Scattered Clouds,0,2013-09-24 08:55:00
4:15 AM,55.2,53.8,95,29.98,10.0,ENE,3.5,-,N/A,,Mostly Cloudy,70,2013-09-24 09:15:00
4:35 AM,55.8,54.0,94,29.98,10.0,ENE,4.6,-,N/A,,Mostly Cloudy,60,2013-09-24 09:35:00
4:55 AM,55.4,53.8,94,29.98,10.0,East,3.5,-,N/A,,Mostly Cloudy,80,2013-09-24 09:55:00
5:15 AM,55.2,54.0,96,29.98,10.0,Calm,Calm,-,N/A,,Mostly Cloudy,0,2013-09-24 10:15:00
5:35 AM,56.1,54.9,96,29.99,10.0,Calm,Calm,-,N/A,,Overcast,0,2013-09-24 10:35:00
5:55 AM,56.7,54.7,93,29.99,10.0,ENE,3.5,-,N/A,,Mostly Cloudy,60,2013-09-24 10:55:00
6:15 AM,56.3,54.5,94,29.99,10.0,ENE,4.6,-,N/A,,Mostly Cloudy,70,2013-09-24 11:15:00
6:35 AM,56.3,54.7,94,29.99,10.0,ENE,4.6,-,N/A,,Mostly Cloudy,70,2013-09-24 11:35:00
6:55 AM,56.3,54.7,94,29.98,10.0,Calm,Calm,-,N/A,,Scattered Clouds,0,2013-09-24 11:55:00
7:15 AM,55.2,54.0,96,29.98,10.0,East,4.6,-,N/A,,Scattered Clouds,80,2013-09-24 12:15:00
7:35 AM,56.3,55.4,97,29.98,5.0,Calm,Calm,-,N/A,,Clear,0,2013-09-24 12:35:00
7:55 AM,58.5,56.5,93,29.98,10.0,East,4.6,-,N/A,,Clear,90,2013-09-24 12:55:00
8:15 AM,60.6,57.2,88,29.98,10.0,ESE,5.8,-,N/A,,Clear,110,2013-09-24 13:15:00
8:35 AM,62.1,57.6,85,29.97,10.0,East,4.6,-,N/A,,Clear,100,2013-09-24 13:35:00
8:55 AM,64.4,58.3,80,29.97,10.0,East,4.6,-,N/A,,Clear,90,2013-09-24 13:55:00
9:15 AM,66.2,58.6,77,29.96,10.0,East,5.8,-,N/A,,Clear,100,2013-09-24 14:15:00
9:35 AM,68.2,59.2,73,29.95,10.0,ESE,6.9,-,N/A,,Clear,110,2013-09-24 14:35:00
9:55 AM,70.5,59.9,69,29.95,10.0,ESE,6.9,-,N/A,,Clear,120,2013-09-24 14:55:00
10:15 AM,72.5,60.3,65,29.95,10.0,SE,5.8,-,N/A,,Clear,140,2013-09-24 15:15:00
10:35 AM,74.3,60.4,62,29.95,10.0,Calm,Calm,-,N/A,,Clear,0,2013-09-24 15:35:00
10:55 AM,75.9,59.9,57,29.95,10.0,SSE,5.8,-,N/A,,Clear,160,2013-09-24 15:55:00
11:15 AM,79.0,58.1,49,29.94,10.0,SE,5.8,-,N/A,,Clear,130,2013-09-24 16:15:00
11:35 AM,78.6,58.6,50,29.94,10.0,SE,8.1,-,N/A,,Scattered Clouds,130,2013-09-24 16:35:00
11:55 AM,79.7,57.2,46,29.93,10.0,ESE,6.9,-,N/A,,Scattered Clouds,110,2013-09-24 16:55:00
12:15 PM,80.8,56.5,43,29.92,10.0,SSE,8.1,-,N/A,,Clear,160,2013-09-24 17:15:00
12:35 PM,80.6,56.8,44,29.91,10.0,South,6.9,-,N/A,,Clear,170,2013-09-24 17:35:00
12:55 PM,80.6,57.0,44,29.91,10.0,SE,5.8,-,N/A,,Clear,130,2013-09-24 17:55:00
1:15 PM,81.5,57.0,43,29.91,10.0,South,6.9,-,N/A,,Scattered Clouds,180,2013-09-24 18:15:00
1:35 PM,79.9,58.3,48,29.91,10.0,South,6.9,-,N/A,,Mostly Cloudy,170,2013-09-24 18:35:00
1:55 PM,79.7,60.3,51,29.90,10.0,SSE,6.9,-,N/A,,Mostly Cloudy,160,2013-09-24 18:55:00
2:15 PM,79.7,60.8,52,29.89,10.0,SSE,5.8,-,N/A,,Overcast,150,2013-09-24 19:15:00
2:35 PM,79.3,60.6,53,29.88,10.0,SSW,5.8,-,N/A,,Mostly Cloudy,200,2013-09-24 19:35:00
2:55 PM,78.8,62.8,58,29.88,10.0,SSE,8.1,-,N/A,,Overcast,160,2013-09-24 19:55:00
3:15 PM,79.0,63.0,58,29.87,10.0,South,5.8,-,N/A,,Mostly Cloudy,170,2013-09-24 20:15:00
3:35 PM,78.4,63.3,60,29.87,10.0,SSE,4.6,-,N/A,,Overcast,150,2013-09-24 20:35:00
3:55 PM,76.8,64.8,66,29.87,10.0,SSE,4.6,-,N/A,Rain,Light Rain,160,2013-09-24 20:55:00
4:15 PM,75.9,66.2,72,29.86,10.0,SE,3.5,-,N/A,Rain,Light Rain,130,2013-09-24 21:15:00
4:35 PM,78.1,63.7,61,29.86,10.0,SSE,8.1,-,N/A,,Overcast,160,2013-09-24 21:35:00
4:55 PM,78.8,63.1,59,29.86,10.0,SSE,6.9,-,N/A,,Mostly Cloudy,160,2013-09-24 21:55:00
5:15 PM,77.0,64.4,65,29.86,10.0,South,6.9,-,N/A,,Overcast,180,2013-09-24 22:15:00
5:35 PM,76.5,64.6,67,29.86,10.0,South,3.5,-,N/A,,Overcast,180,2013-09-24 22:35:00
5:55 PM,76.1,65.1,69,29.86,10.0,South,5.8,-,N/A,,Overcast,180,2013-09-24 22:55:00
6:15 PM,75.9,65.5,70,29.85,10.0,Calm,Calm,-,N/A,,Scattered Clouds,0,2013-09-24 23:15:00
6:35 PM,75.2,65.7,72,29.84,10.0,Calm,Calm,-,N/A,,Scattered Clouds,0,2013-09-24 23:35:00
6:55 PM,74.3,65.7,74,29.84,10.0,Calm,Calm,-,N/A,,Clear,0,2013-09-24 23:55:00
7:15 PM,72.5,65.8,80,29.85,10.0,Calm,Calm,-,N/A,,Clear,0,2013-09-25 00:15:00
7:35 PM,70.9,65.8,84,29.85,10.0,Calm,Calm,-,N/A,,Scattered Clouds,0,2013-09-25 00:35:00
7:55 PM,70.0,66.2,88,29.85,10.0,SW,3.5,-,N/A,,Clear,220,2013-09-25 00:55:00
8:15 PM,68.4,65.8,92,29.86,10.0,Calm,Calm,-,N/A,,Scattered Clouds,0,2013-09-25 01:15:00
8:35 PM,68.4,65.8,92,29.86,10.0,Calm,Calm,-,N/A,,Scattered Clouds,0,2013-09-25 01:35:00
8:55 PM,68.0,65.5,92,29.86,10.0,Calm,Calm,-,N/A,,Clear,0,2013-09-25 01:55:00
9:15 PM,66.4,65.3,96,29.86,10.0,Calm,Calm,-,N/A,,Clear,0,2013-09-25 02:15:00
9:35 PM,66.7,65.7,96,29.86,10.0,Calm,Calm,-,N/A,,Clear,0,2013-09-25 02:35:00
9:55 PM,65.5,64.9,98,29.86,10.0,Calm,Calm,-,N/A,,Scattered Clouds,0,2013-09-25 02:55:00
10:15 PM,66.6,66.4,99,29.86,10.0,Calm,Calm,-,N/A,,Mostly Cloudy,0,2013-09-25 03:15:00
10:35 PM,66.2,66.2,100,29.86,10.0,Calm,Calm,-,N/A,,Overcast,0,2013-09-25 03:35:00
10:55 PM,67.1,66.6,98,29.86,10.0,Calm,Calm,-,N/A,,Overcast,0,2013-09-25 03:55:00
11:15 PM,66.6,66.2,99,29.86,7.0,ESE,4.6,-,N/A,Rain,Rain,120,2013-09-25 04:15:00
11:35 PM,67.6,66.9,98,29.86,10.0,SE,3.5,-,N/A,Rain,Light Rain,140,2013-09-25 04:35:00
11:55 PM,67.1,66.6,98,29.85,4.0,ESE,3.5,-,0.03,Rain,Rain,120,2013-09-25 04:55:00